(2019 HM3) |
Classification: Amor [NEO] SPK-ID: 3841620 |
[ hide orbit diagram ]
For accurate long-term ephemerides, please instead use our Horizons system.This orbit viewer was implemented using two-body methods, and hence should not be used for determining accurate long-term trajectories (over several years or decades) or planetary encounter circumstances.
Orbital Elements at Epoch 2458600.5 (2019-Apr-27.0) TDB
Reference: JPL 1 (heliocentric ecliptic J2000)
Element | Value | Uncertainty (1-sigma) | Units |
e | .3575312636514704 | 0.00043391 | |
a | 1.58557833645789 | 0.0010883 | au |
q | 1.018684510205704 | 1.1346e-05 | au |
i | 2.879666392924926 | 0.0027417 | deg |
node | 28.71213696027845 | 0.0015235 | deg |
peri | 196.8555563855014 | 0.0049606 | deg |
M | 355.6306683296153 | 0.0035568 | deg |
tp | 2457880.095051670899 (2017-May-06.59505167) | 0.74882 | TDB |
period | 729.2559514527089 2.00 | 0.75084 0.002056 | d yr |
n | .4936538389338677 | 0.00050827 | deg/d |
Q | 2.152472162710076 | 0.0014775 | au |
|
| | Orbit Determination Parameters
Additional Information
|
[ show covariance matrix ]
Physical Parameter Table
Parameter |
Symbol |
Value |
Units |
Sigma |
Reference |
Notes |
absolute magnitude |
H |
27.0 |
|
.2177 |
MPO467579 |
autocmod 2.6q |
|
[ show close-approach data ]
|